Showing default

RADUGA 25, 20499

Orbit data source: Space-Track

RADUGA 25, 20499 is a payload satellite owned by UNKS (CIS) in GEO that was launched on Thu, 15 Feb 1990 UTC via a PROTON-K/DM-2 launch vehicle from the Tyuratam Missile And Space Complex (TTMTR). Payloads include a variety of satellites, spacecraft, and rockets equipped with specific instruments for various scientific and technological missions. These include communications satellites like Starlink; space stations such as the ISS; scientific satellites like the Hubble; Earth observation satellites from companies like Planet Labs, Umbra, and HawkEye 360; GPS; miniature CubeSats for education and research; and military/defense satellites.

Loading next visibility...
RADUGA 25 details
Identifier
20499, 1990-016A
Orbit
GEO
Last TLE update1 day ago
Origin
Flag of CISUNKS (CIS)
ManufacturerNPO PM
MissionNon-operational Defense Communications
Bus & MotorRADUGA, Unknown motor
Mass1,965 kg wet, ~1,800 kg dry
Launch date (UTC)
1990-02-15 (35 years ago)
Launch vehicle
PROTON-K/DM-2
Launch site
Tyuratam Missile And Space Complex (TTMTR)
Object type
Payload
Rocket body
Debris
Shape & HBRCyl + 2 Pan, 9.5 m
Radar Cross Section16.975 m², Large (>1 m²)

Expand to show TLE details & history

TLE from 1 day ago
0 RADUGA 25
1 20499U 90016A   24347.43787793 -.00000291  00000-0  00000-0 0  9991
2 20499  12.9019 338.5506 0005550 207.0190 346.5921  1.00357164127379
Epoch: 2024-12-12T10:30Z
Definitive object data (Epoch: 2024-12-12T10:30:32.653Z)
Latitude-3.02066°
Longitude-67.44493°
Altitude35,740.03 km
Speed3.077 km/s
True Right ascension11h 27m 14s
True Declination-3° 01' 03"
Sunlit
Object was in daylight at TLE epoch
Visualization TLE readout
Latitude-1.83614°
Longitude91.2278°
Altitude35,781.571 km
Speed3.074 km/s
Apparent Right ascension22h 20m 12s
Apparent Declination-8° 01' 37"
Sunlit
Object is in daylight
Visualization observer readout
Local Sidereal Time19:27:09
Azimuth130.018° SE
Elevation27.611°
Doppler factor1
Orbital elements
Apogee altitude35,787.059 km
Perigee altitude35,740.281 km
Semi-major axis42,141.807 km
Eccentricity0.000555
Inclination12.9019°
RAAN338.5506°
Arg. of periapsis207.019°
True anomaly346.57734°
Mean anomaly346.5921°
Eccentric anomaly346.58472°
Mean motion0.25088 °/min
BSTARUnknown
Orbital period1434.92 mins
Loading historical data...
20499 neighbors
Authenticating...
Loading maneuver chart data...
Loading historical data...
Loading historical data...
Loading historical data...
Loading historical data...
Loading historical data...
Loading historical data...
Loading historical data...

RADUGA 25 Visibility forecast

Observer location: undefined°, undefined

Span
Click to sort rows by Start time (UTC) header in descending order
Start Az.
Max El. time (UTC)
Max El. Az.
Max El.
End time (UTC)
End Az.
1440 mins2024-12-13 20:55:30.294Z130.032° SE2024-12-14 03:05:30.294Z117.872° SE32.839°2024-12-14 20:55:30.294Z129.556° SE
|